Location: Houghton
(47.1220°N, 88.5690°W)
Time: 13:26:37
(UTC-04:00)

ISS - Visible Passes

Search period start: 22 October 2017 00:00
Search period end: 01 November 2017 00:00
Orbit: 401 x 408 km, 51.6° (Epoch: 23 October)

Date Brightness Start Highest point End Pass type
(mag) Time Alt. Az. Time Alt. Az. Time Alt. Az.
29 Oct -1.6 07:56:36 10° SSW 07:59:25 27° SE 08:02:14 10° E visible
30 Oct -1.0 07:05:04 10° S 07:07:11 16° SE 07:09:19 10° E visible
31 Oct -3.1 07:47:42 10° SW 07:50:52 55° SSE 07:54:04 10° ENE visible
